SCP
-0 -0 -0 -0 -0 -0 -0 -0 0 0 0 0 0 0 0 -0 -0 0 0 0 -0 0
-0 -0 0 0 0 -0 -0 0 0 0 0 0 0 0 0 0 -0 -0 0 0 0 0
-0 -0 0 0 -0 0 -0 -0 0 0 0 0 0 0 0 0 -0 -0 0 0 0 -0
-0 -0 -0 -0 -0 0 -0 -0 -0 -0 0 0 0 0 0 0 0 0 0 0 0 0
-0 0 -0 -0 -0 0 -0 0 0 -0 -0 -0 0 0 0 0 0 0 0 0 0 0
0 -0 0 -0 0 0 -0 0 0 0 -0 -0 -0 -0 0 0 0 0 0 0 0 0
-0 0 0 0 0 0 0 0 0 0 0 -0 -0 -0 0 0 0 0 0 0 0 0
0 0 0 0 0 0 0 1 1 1 0 0 0 0 0 0 0 0 0 0 -0 0
0 0 0 1 1 1 1 1 1 1 0 0 0 0 0 0 0 0 0 0 0 0
0 0 0 0 0 0 0 0 0 0 0 0 0 0 0 0 1 0 0 0 0 0
0 0 0 0 0 0 0 0 0 0 0 0 0 0 0 0 1 1 0 0 0 0
0 0 0 0 0 0 0 0 0 0 0 0 0 0 0 0 0 0 0 0 0 0
0 0 0 0 0 0 0 0 0 0 0 0 0 0 0 0 0 0 0 0 0 0
0 0 0 0 0 0 0 0 0 0 0 0 0 0 0 0 0 0 0 0 0 0
Wind_Speed_500mb
51 47 44 40 34 30 25 26 26 23 23 15 18 18 17 14 21 23 23 21 21 23
54 55 55 47 39 37 37 32 29 26 27 29 20 14 28 21 17 20 23 24 27 26
60 57 54 50 45 39 39 37 33 31 30 29 30 28 26 22 20 20 23 26 24 25
58 50 43 44 37 29 28 33 37 34 31 32 33 29 26 26 29 36 30 31 29 26
37 41 35 27 25 21 30 36 33 31 32 29 29 29 28 29 28 27 29 31 36 35
30 28 24 26 30 35 37 31 27 27 26 28 28 29 32 31 26 31 33 34 33 36
30 30 32 36 37 31 25 24 26 26 22 28 31 34 36 34 28 28 27 39 38 38
31 30 31 28 24 23 23 23 23 30 37 29 23 24 25 29 26 27 28 33 35 43
25 23 21 19 14 13 13 12 12 16 19 19 23 24 20 21 21 25 29 27 23 26
20 16 13 11 9 10 10 10 13 20 18 16 16 17 17 17 18 23 26 23 19 19
15 13 12 10 9 12 13 13 15 16 16 16 17 17 17 16 17 19 20 19 18 16
14 12 11 8 9 10 11 10 9 9 7 8 10 10 11 14 17 17 16 14 17 18
14 13 9 5 6 6 8 9 10 7 5 6 6 6 6 5 4 5 6 10 14 17
14 14 16 18 18 14 10 8 7 5 7 11 13 13 12 8 7 7 8 9 9 10
Wind_Direction_500mb
246 250 260 269 275 273 285 284 285 294 308 309 325 340 305 282 267 257 252 253 254 255
254 258 265 272 275 274 277 283 285 284 286 292 294 287 308 312 285 278 264 249 247 253
258 263 267 272 274 279 281 274 278 285 291 292 293 286 282 284 291 292 283 265 254 252
256 260 263 266 264 274 276 275 277 279 279 288 290 283 273 274 278 285 278 274 266 254
240 247 246 244 251 260 276 281 274 275 276 276 285 275 272 276 279 287 279 274 255 253
222 225 237 251 261 267 270 271 269 271 275 282 284 275 266 264 269 271 272 272 258 253
225 237 244 252 258 256 250 249 264 278 287 290 288 277 265 264 271 271 269 276 272 249
227 235 235 231 238 244 247 256 268 280 287 283 286 287 276 266 268 267 270 270 273 254
202 206 224 232 245 264 269 271 280 286 287 279 275 279 280 274 273 273 276 278 269 256
187 197 218 240 255 267 264 269 290 294 299 299 291 284 276 259 274 278 283 282 274 259
200 218 227 232 250 255 264 274 278 281 284 288 290 287 283 279 270 268 272 277 280 285
202 206 216 235 249 256 266 269 265 269 288 302 306 306 299 284 276 274 266 260 265 268
191 195 189 184 191 152 124 120 114 95 64 39 18 6 351 332 338 340 300 280 273 257
162 147 129 131 127 116 111 107 100 75 64 59 55 49 41 26 356 330 325 323 321 314
Wind_Speed_850mb
51 47 44 40 34 30 25 26 26 23 23 15 18 18 17 14 21 23 23 21 21 23
54 55 55 47 39 37 37 32 29 26 27 29 20 14 28 21 17 20 23 24 27 26
60 57 54 50 45 39 39 37 33 31 30 29 30 28 26 22 20 20 23 26 24 25
58 50 43 44 37 29 28 33 37 34 31 32 33 29 26 26 29 36 30 31 29 26
37 41 35 27 25 21 30 36 33 31 32 29 29 29 28 29 28 27 29 31 36 35
30 28 24 26 30 35 37 31 27 27 26 28 28 29 32 31 26 31 33 34 33 36
30 30 32 36 37 31 25 24 26 26 22 28 31 34 36 34 28 28 27 39 38 38
31 30 31 28 24 23 23 23 23 30 37 29 23 24 25 29 26 27 28 33 35 43
25 23 21 19 14 13 13 12 12 16 19 19 23 24 20 21 21 25 29 27 23 26
20 16 13 11 9 10 10 10 13 20 18 16 16 17 17 17 18 23 26 23 19 19
15 13 12 10 9 12 13 13 15 16 16 16 17 17 17 16 17 19 20 19 18 16
14 12 11 8 9 10 11 10 9 9 7 8 10 10 11 14 17 17 16 14 17 18
14 13 9 5 6 6 8 9 10 7 5 6 6 6 6 5 4 5 6 10 14 17
14 14 16 18 18 14 10 8 7 5 7 11 13 13 12 8 7 7 8 9 9 10
Wind_Direction_850mb
246 250 260 269 275 273 285 284 285 294 308 309 325 340 305 282 267 257 252 253 254 255
254 258 265 272 275 274 277 283 285 284 286 292 294 287 308 312 285 278 264 249 247 253
258 263 267 272 274 279 281 274 278 285 291 292 293 286 282 284 291 292 283 265 254 252
256 260 263 266 264 274 276 275 277 279 279 288 290 283 273 274 278 285 278 274 266 254
240 247 246 244 251 260 276 281 274 275 276 276 285 275 272 276 279 287 279 274 255 253
222 225 237 251 261 267 270 271 269 271 275 282 284 275 266 264 269 271 272 272 258 253
225 237 244 252 258 256 250 249 264 278 287 290 288 277 265 264 271 271 269 276 272 249
227 235 235 231 238 244 247 256 268 280 287 283 286 287 276 266 268 267 270 270 273 254
202 206 224 232 245 264 269 271 280 286 287 279 275 279 280 274 273 273 276 278 269 256
187 197 218 240 255 267 264 269 290 294 299 299 291 284 276 259 274 278 283 282 274 259
200 218 227 232 250 255 264 274 278 281 284 288 290 287 283 279 270 268 272 277 280 285
202 206 216 235 249 256 266 269 265 269 288 302 306 306 299 284 276 274 266 260 265 268
191 195 189 184 191 152 124 120 114 95 64 39 18 6 351 332 338 340 300 280 273 257
162 147 129 131 127 116 111 107 100 75 64 59 55 49 41 26 356 330 325 323 321 314